sat.trackr.live / text

‹ back to catalog

YAM-12

NORAD 69003 · 2026-100Z

PAYLOAD ACTIVE UNKNOWN

§ Identity

Operator
Country
US
Launch date
2026-05-03
Launch site
AFWTR
Launch vehicle
Mass (kg)
RCS (m²)

External: N2YO · Heavens-Above · Gunter

§ Orbital elements

Epoch: 2026-05-25T00:00:02.000160Z

Period
96.53 min
Inclination
97.7366°
Eccentricity
0.0002190
Mean motion
14.91799615 rev/d
Perigee alt
590.8 km
Apogee alt
593.9 km
Semi-major
6,970.5 km
B*
2.9971e-3
RAAN
42.8821°
Arg perigee
181.5163°
Mean anomaly
181.2379°
Rev number
130

§ Raw data

YAM-121 69003U 26100Z   26145.00002315  .00030290  00000+0  29971-2 0  99992 69003  97.7366  42.8821 0002190 181.5163 181.2379 14.91799615  1307

JSON: /api/v1/satellites/69003 · /tle

For live sub-satellite position, see the globe view (requires WebGL).

§ Visibility from observer

Set your observer location to see the next 7 days of passes ≥ 10°. The values pass through the URL so the page stays shareable.

No JS? Fill the form by hand. The geolocation button needs JavaScript.